Main page
METAR-TAF:

METAR-TAF

Airports :

Abu Musa, Iran

latitude: 25-52-33N, longitude: 055-02-01E, elevation: 7 m

Current weather observation

The report was made 2 hours and 13 minutes ago, at 15:00 UTC
Wind 6 kt from the West/Southwest
Temperature 35°C
Humidity 71%
Pressure 997 hPa
Visibility: 5000 m
haze

METAR: OIBA 231500Z 24006KT 5000 HZ NSC 35/29 Q0997

Time: 21:43 (17:13 UTC)


TAF: missing

Weather observations and forecasts of more than 4000 airports (METAR and TAF reports).

The available stations are represented by yellow and red dots on the map.

Hover mouse over dot to see the name of the station.

Then click to see weather observations and forecasts.

To change the map : click on the green buttons with a black cross to zoom in, on the green button with a dash to zoom out, or on the green arrows for adjacent maps.


METAR-TAF: